EHI
9 12 18 18 18 22 20 15 11 11 11 9 7 8 12 15 14 16 25 34 29 14 4 1 0 0 0 0 0 0 0 0 0 0 0 0 0 0 0 0 0 0 0
7 9 12 13 13 16 16 12 10 9 9 7 4 4 7 10 12 15 21 29 27 16 7 2 0 1 1 1 0 0 1 2 1 1 0 0 0 0 0 0 0 0 0
4 4 5 7 6 7 8 7 5 5 5 3 1 2 4 6 8 11 16 22 22 16 9 3 3 4 4 3 2 2 3 5 4 3 1 0 0 0 0 0 0 0 0
1 1 2 2 2 1 3 2 2 2 2 1 0 1 3 5 6 6 9 14 18 16 11 7 7 8 6 4 4 5 6 7 6 5 3 1 0 0 0 0 0 0 0
0 0 0 0 0 1 1 1 0 1 1 1 0 0 1 2 3 3 3 7 13 15 13 12 11 8 4 5 9 12 13 11 9 7 5 3 1 0 0 0 0 0 0
0 0 0 0 0 0 0 0 0 0 0 0 0 0 0 0 1 1 1 5 9 10 9 11 13 11 6 7 15 20 22 21 16 11 8 5 2 0 0 0 0 0 0
0 0 0 0 0 0 0 0 0 0 0 0 0 0 0 0 0 0 1 3 5 5 4 7 14 17 13 9 13 22 28 29 26 19 12 8 3 0 0 0 0 0 0
0 0 0 0 0 0 0 0 0 0 0 0 0 0 0 0 0 0 0 1 2 2 2 3 10 16 16 12 9 15 25 32 31 25 18 12 6 1 0 0 0 0 0
0 0 0 0 0 0 0 0 0 0 0 0 0 0 0 0 0 0 0 0 1 1 1 1 4 10 13 14 11 10 18 27 30 29 25 18 7 1 0 0 0 0 0
0 0 0 0 0 0 0 0 0 0 0 0 0 0 0 0 0 0 0 0 0 0 0 0 2 7 11 14 13 10 11 17 22 27 29 22 9 2 0 0 0 0 0
0 0 0 0 0 0 0 0 0 0 0 0 0 0 0 0 0 0 0 0 0 0 0 0 2 6 10 12 12 9 7 8 11 17 23 21 11 3 1 0 0 0 0
0 0 0 0 0 0 0 0 0 0 0 0 0 0 0 0 0 0 0 0 0 0 0 0 1 3 6 7 7 7 5 3 3 7 11 12 9 4 1 0 0 0 0
0 0 0 0 0 0 0 0 0 0 0 0 0 0 0 0 0 0 0 0 0 0 0 0 0 1 2 4 5 4 4 2 1 1 2 4 4 2 1 0 0 0 0
0 0 0 0 0 0 0 0 0 0 0 0 0 0 0 0 0 0 0 0 0 0 0 0 0 0 1 2 3 2 2 1 0 0 0 1 1 1 0 0 0 0 0
0 0 0 0 0 0 0 0 0 0 0 0 0 0 0 0 0 0 0 0 0 0 0 0 0 0 1 1 1 1 1 1 0 0 0 0 0 0 0 0 0 0 0
0 0 0 0 0 0 0 0 0 0 0 0 0 0 0 0 0 0 0 0 0 0 0 0 0 0 0 0 0 0 0 0 0 0 0 0 0 0 0 0 0 0 0
0 0 0 0 0 0 0 0 0 0 0 0 0 0 0 0 0 0 0 0 0 0 0 0 0 0 0 0 0 0 0 0 0 0 0 0 0 0 0 0 0 0 0
0 0 0 0 0 0 0 0 0 0 0 0 0 0 0 0 0 0 0 0 0 0 0 0 0 0 0 0 0 0 0 0 0 0 0 0 0 0 0 0 0 0 0
0 0 0 0 0 0 0 0 0 0 0 0 0 0 0 0 0 0 0 0 0 0 0 0 0 0 0 0 0 0 1 1 1 0 0 0 0 0 0 0 0 0 0
0 0 0 0 0 0 0 0 0 0 0 0 0 0 0 0 0 0 0 0 0 0 0 0 0 0 0 0 0 0 1 1 1 0 0 0 0 0 0 0 0 0 0
0 0 0 0 0 0 0 0 0 0 0 0 0 0 0 0 0 0 0 0 0 0 0 0 0 0 0 0 0 0 0 0 0 0 0 0 0 0 0 0 0 0 0
0 0 0 0 0 0 0 0 0 0 0 0 0 0 0 0 0 0 0 0 0 0 0 0 0 0 0 0 0 0 0 0 0 0 0 0 0 0 0 0 0 0 0
0 0 0 0 0 0 0 0 0 0 0 0 0 0 0 0 0 0 0 0 0 0 0 0 0 0 0 0 0 0 0 0 0 0 0 0 0 0 0 0 0 0 0
0 0 0 0 0 0 0 0 0 0 0 0 0 0 0 0 0 0 0 0 0 0 0 0 0 0 0 0 0 0 0 0 0 0 0 0 0 0 0 0 0 0 0
0 0 0 0 0 0 0 0 0 0 0 0 0 0 0 0 0 0 0 0 0 0 0 0 0 0 0 0 0 0 0 0 0 0 0 0 0 0 0 0 0 0 0
0 0 0 0 0 0 0 0 0 0 0 0 0 0 0 0 0 0 0 0 0 0 0 0 0 0 0 0 0 0 0 0 0 0 0 0 0 0 0 0 0 0 0
Wind_Speed
4 3 2 2 4 3 4 4 5 5 6 8 9 10 10 11 11 10 6 11 14 14 15 15 15 16 17 18 18 17 17 16 15 14 14 13 13 14 14 13 12 11 10
4 3 3 3 3 3 3 3 4 5 6 6 8 9 10 11 11 11 11 10 15 16 16 16 16 17 18 19 19 19 19 18 17 16 15 14 14 14 14 14 13 12 11
4 4 3 3 2 3 3 4 4 5 6 6 8 8 8 10 11 12 12 10 11 16 18 18 17 17 17 19 20 21 20 19 18 18 17 16 15 15 15 15 14 14 12
5 5 4 3 2 4 4 3 5 5 5 6 6 7 7 8 11 11 12 11 10 10 16 21 20 18 18 20 21 21 21 21 20 19 19 18 17 16 16 15 15 14 14
6 6 4 3 4 5 5 5 4 5 6 6 7 7 8 9 9 11 12 13 12 12 11 14 20 20 21 22 22 22 22 23 22 22 21 21 19 18 17 17 16 16 15
6 7 5 3 6 5 5 4 5 5 6 7 8 8 9 9 9 10 11 11 11 13 14 13 13 16 22 21 21 21 22 23 24 23 23 22 21 20 18 18 17 17 17
6 5 7 4 5 6 6 7 6 7 7 5 7 8 9 10 10 8 8 8 10 11 12 13 11 11 12 21 21 20 22 23 24 24 24 23 22 21 20 19 19 18 18
6 5 5 7 5 5 6 6 6 7 6 5 6 8 8 7 6 7 6 7 8 7 9 12 13 13 12 10 14 22 22 22 24 25 24 23 23 22 21 21 20 19 19
5 5 6 7 6 7 5 5 6 7 7 6 5 5 6 6 5 4 5 5 5 5 6 7 11 13 14 12 11 17 23 22 23 25 26 25 23 22 22 22 22 21 21
5 5 5 5 6 7 5 7 5 6 7 7 5 5 6 6 6 6 5 4 4 5 6 6 8 10 11 10 11 13 17 20 23 25 26 25 24 23 22 23 24 23 22
4 5 5 5 5 6 5 7 6 7 7 8 7 6 6 6 8 7 8 7 6 5 5 6 6 7 9 10 9 14 15 17 20 22 23 24 24 24 24 25 25 25 24
3 3 4 4 5 5 5 6 6 8 7 8 8 8 8 7 7 7 8 9 8 6 6 5 7 6 7 8 11 13 15 16 18 19 21 23 24 24 24 25 26 26 26
4 2 4 5 5 5 6 6 7 7 8 8 8 8 8 8 8 8 9 9 9 8 7 6 5 4 5 5 7 10 14 15 17 19 20 21 22 24 24 25 25 25 25
5 5 6 6 6 7 7 6 7 7 6 7 9 9 8 9 8 8 8 9 10 9 7 6 3 3 3 3 4 8 10 14 17 19 20 21 21 23 24 25 24 24 23
6 6 7 7 8 8 8 8 8 7 7 8 9 9 9 8 8 8 8 8 9 10 9 6 4 3 3 3 3 6 8 10 14 17 19 20 20 21 23 23 23 22 22
7 8 9 9 9 9 9 9 9 8 8 8 8 8 8 9 8 8 8 8 8 9 10 7 5 5 5 5 3 5 6 8 12 14 16 17 18 19 20 22 22 22 22
8 9 9 9 10 10 9 9 10 10 10 10 10 10 10 10 9 9 9 8 9 9 10 9 7 5 6 7 4 5 5 5 6 12 13 14 15 16 18 19 21 21 21
9 9 9 10 11 10 10 10 11 11 11 11 11 11 11 9 10 10 9 10 9 9 10 11 9 7 7 6 5 4 4 4 5 8 11 12 13 14 15 17 18 19 20
10 10 10 11 11 11 10 10 11 11 11 11 11 11 11 11 11 10 10 10 9 9 9 10 10 7 6 5 5 4 4 3 4 5 8 10 11 12 13 15 16 17 18
10 10 10 11 11 11 11 11 11 11 11 11 11 11 11 11 11 11 10 10 10 10 10 10 10 8 7 6 5 4 3 3 3 4 4 5 7 9 11 13 14 16 16
10 10 11 11 11 10 10 10 9 10 11 11 11 11 12 11 10 9 10 10 10 9 10 10 9 9 8 6 5 4 4 3 3 3 4 4 5 6 7 10 12 14 15
10 11 11 11 11 10 4 2 9 12 12 12 12 12 11 11 13 15 16 16 14 13 12 10 9 9 9 8 6 5 4 4 4 4 4 3 4 4 4 5 9 13 14
10 10 11 11 11 11 7 7 10 12 14 13 13 12 11 10 9 11 14 18 18 19 17 14 14 12 10 8 7 7 6 6 4 5 5 3 3 3 2 3 9 12 13
10 10 10 11 11 11 7 9 9 13 14 14 14 13 13 12 11 10 12 12 13 14 15 15 14 14 13 10 8 8 7 5 3 3 4 3 3 2 2 3 7 9 11
10 10 10 10 11 11 9 10 10 11 12 13 13 13 13 13 9 7 11 13 14 13 12 13 13 12 10 8 7 7 7 6 5 4 3 3 4 3 2 2 4 7 10
10 10 10 10 11 12 8 8 9 9 11 11 11 11 12 13 8 6 11 12 14 13 13 12 13 15 15 15 13 12 10 8 5 4 4 4 5 4 3 2 2 4 6
Wind_Direction
295 288 271 263 267 264 252 256 262 266 265 254 250 246 243 241 242 240 230 192 203 215 222 225 224 221 217 211 208 207 204 202 197 196 195 193 190 188 188 187 185 183 182
313 294 270 262 265 267 284 283 277 271 267 267 260 256 253 248 242 242 243 218 208 214 222 226 227 225 221 217 212 209 207 205 201 199 198 197 194 193 193 192 190 189 187
328 302 278 261 270 271 258 258 265 262 260 261 259 259 255 251 250 243 244 243 228 213 216 224 227 227 225 222 217 213 209 207 203 201 200 200 198 196 195 195 194 192 190
329 302 291 282 298 275 266 266 264 273 272 272 271 268 263 252 248 247 244 240 240 236 217 218 222 224 226 225 221 217 212 208 205 202 201 201 200 199 198 198 197 195 193
332 303 298 317 285 278 280 282 287 289 287 282 276 262 260 256 251 246 244 241 237 236 237 215 211 219 225 228 225 220 215 210 207 205 204 203 202 202 201 201 199 198 196
338 319 293 302 291 284 281 283 291 278 285 282 282 280 269 262 253 247 246 241 235 233 233 236 220 216 220 226 225 221 218 213 209 207 206 206 205 204 203 203 202 200 200
341 321 314 313 293 291 298 292 285 278 273 284 282 276 265 250 246 245 242 245 239 234 234 233 234 234 217 215 221 221 220 216 211 208 207 207 207 207 205 204 204 203 202
328 318 334 305 308 302 280 282 278 288 290 285 290 295 286 263 225 236 236 234 244 241 239 236 232 231 238 224 212 214 218 218 213 209 207 207 208 208 207 207 206 205 204
318 323 315 312 315 295 297 298 286 274 287 285 277 292 299 307 321 256 242 241 241 246 249 248 239 233 231 233 226 210 213 215 214 210 208 207 207 207 207 208 208 207 207
305 307 305 305 304 300 306 285 295 294 278 281 273 261 275 300 296 296 274 255 252 255 261 255 246 238 233 234 229 226 214 212 213 212 209 207 207 206 207 209 211 210 209
289 297 303 304 299 293 310 309 303 291 285 281 288 283 277 268 260 272 288 294 281 268 267 261 250 242 238 235 233 226 215 212 212 212 210 207 206 208 210 212 214 214 213
282 286 290 295 289 301 305 294 295 279 282 292 289 285 282 281 281 281 283 287 288 282 274 272 260 242 236 236 234 230 218 214 212 213 211 209 207 208 211 215 217 218 216
294 306 296 287 290 293 289 289 283 288 283 280 276 278 281 282 283 285 284 287 289 287 273 261 260 248 240 239 237 232 226 218 215 213 212 211 209 209 210 214 218 220 219
301 314 285 275 276 278 280 280 280 272 272 277 276 278 281 274 277 276 279 286 287 284 273 266 274 259 256 254 242 235 235 223 218 214 213 213 211 209 209 212 214 216 217
281 280 279 276 274 273 274 274 272 278 275 271 273 265 263 274 270 270 272 274 281 286 285 286 269 267 281 276 252 246 242 227 218 215 213 212 211 210 208 208 209 210 211
278 277 276 276 275 273 268 266 270 262 264 265 268 278 280 276 279 275 270 268 267 273 280 286 280 289 302 297 260 261 249 229 216 212 211 211 211 211 209 207 207 207 208
276 272 273 276 276 275 272 268 269 274 266 266 267 265 263 272 277 279 272 268 266 266 271 276 275 281 286 289 285 268 255 231 215 208 208 208 209 210 209 207 206 205 205
270 273 275 276 276 275 274 271 269 270 268 266 265 266 266 264 261 266 272 272 270 272 272 276 279 278 272 280 280 274 256 229 215 204 205 207 207 209 208 206 204 203 202
272 276 277 277 278 279 277 273 270 269 267 266 265 265 264 265 265 266 268 269 269 264 263 269 271 270 270 265 267 259 248 223 201 184 197 203 205 206 206 202 200 199 198
275 277 279 281 280 279 276 273 269 267 266 266 264 263 263 261 260 262 263 261 266 270 266 264 266 263 258 255 250 245 234 210 191 173 175 179 186 195 200 198 196 194 193
277 279 281 280 278 276 270 274 277 273 270 269 265 261 258 258 270 272 275 275 270 263 264 259 259 260 254 249 250 244 236 217 196 180 169 174 173 181 188 192 192 189 188
280 282 279 279 278 276 296 299 278 281 277 271 268 266 263 247 239 235 248 261 271 273 274 274 267 263 265 259 258 253 239 218 211 187 174 169 175 169 176 185 175 178 181
283 280 278 277 277 276 261 242 249 270 272 270 269 267 265 265 247 248 234 231 242 246 254 267 273 274 275 263 263 255 241 238 230 178 168 153 155 150 133 123 150 167 173
284 281 279 279 278 275 251 238 243 259 264 264 264 263 263 267 263 262 263 255 249 240 233 236 249 261 266 278 274 266 260 249 238 186 172 148 133 112 102 108 135 155 164
283 280 277 277 276 276 256 235 239 268 263 263 263 262 261 262 255 236 257 263 263 259 246 241 257 266 285 295 290 273 251 230 217 188 177 150 132 106 87 85 105 132 149
280 281 281 279 278 278 266 228 226 262 266 267 264 261 248 243 253 222 249 256 257 257 259 243 230 239 247 246 238 246 250 237 218 189 174 160 143 137 124 83 92 122 128